Back to catalog

STARLINK-34051

AliveCommunicationsVLEO
NORAD 64022·PAYLOAD·🇺🇸 United States

Launched May 16, 2025 from Vandenberg Space Force Base

Loading…

Next Passes (next 24 hours)

TLE

FreshSource: CelesTrak SupGP

Epoch: Sep 14, 2026, 15:35 UTC

1 64022C 25102A   26257.64979167 -.00008810  00000+0 -30658-3 0  2575
2 64022  70.0017 356.6858 0003584 275.3549 317.6037 15.29572663    11

Track STARLINK-34051 in real time with AllMySat

Download on the App Store